Starlink 11168

operational
NORAD ID: 60183 Int'l Des: 2024-124 Owner: SPXS Country: US Constellation: starlink
LEOCIRCULAR

Starlink 11168について

説明を読み込み中...

リアルタイム位置

3D地球を読み込み中...

次回通過

高度履歴

Altitude vs Time

uPlot chart will show altitude changes over time

軌道要素

1 60183U 24124A 26037.16351266 -.00012423 00000-0 -97985-4 0 9995
2 60183 53.1580 316.5874 0001355 70.9239 289.1925 15.69671461 92777
Epoch: Feb 6, 2026 • Age: 5 hours

現在のステータス

高度 359.5 km
速度 7.70 km/s
衛星直下点 15.22°N, 61.99°E
打ち上げ日 Jul 3, 2024
運用期間 1.5 years
タイプ internet

技術仕様

分類 Payload
質量 960.00 kg
乾燥質量 910.00 kg
総質量 960.00 kg
長さ 0.30 m
直径 4.10 m
スパン 29.00 m
形状 Box + pan
製造者 SPXS
バスタイプ Starlink V2MD
フェーズステータス In Orbit
所有者/国 SPXS/US

大規模コンステレーション

Loading constellations...